This is the latest recevied weather packets stored in our database for station/object WX2NJ-13. If no packets are shown the sender has not sent any weather packets the latest 10 day(s).
| Time | Temp. | Humidity | Pressure | Rain* | Wind** | Luminosity | Snow |
|---|---|---|---|---|---|---|---|
| 1778109758 | 21.11° C | 66% | 1008.5 hPa | 0 mm | 0.45 m/s, 173° | - | - |
| 1778109459 | 21.67° C | 66% | 1008.4 hPa | 0 mm | 0.89 m/s, 158° | - | - |
| 1778109161 | 21.67° C | 65% | 1008.4 hPa | 0 mm | 0.45 m/s, 201° | - | - |
| 1778108859 | 21.67° C | 65% | 1008.4 hPa | 0 mm | 0.45 m/s, 53° | - | - |
| 1778108561 | 21.67° C | 65% | 1008.4 hPa | 0 mm | 0.89 m/s, 210° | - | - |
| 1778108262 | 21.67° C | 65% | 1008.3 hPa | 0 mm | 0.45 m/s, 232° | - | - |
| 1778107961 | 21.67° C | 65% | 1008.2 hPa | 0 mm | 0.45 m/s, 267° | - | - |
| 1778107662 | 21.67° C | 65% | 1008.2 hPa | 0 mm | 1.34 m/s, 156° | - | - |
| 1778107363 | 21.67° C | 64% | 1008.2 hPa | 0 mm | 0.45 m/s, 226° | - | - |
| 1778107062 | 21.67° C | 64% | 1008.1 hPa | 0 mm | 0.89 m/s, 195° | - | - |
| 1778106763 | 22.22° C | 64% | 1008.2 hPa | 0 mm | 0.45 m/s, 218° | - | - |
| 1778106465 | 22.22° C | 64% | 1008.3 hPa | 0 mm | 0.45 m/s, 180° | - | - |
| 1778106163 | 22.22° C | 64% | 1008.2 hPa | 0 mm | 0 m/s | - | - |
| 1778105865 | 22.22° C | 64% | 1008.2 hPa | 0 mm | 0.45 m/s, 285° | - | - |
| 1778105566 | 22.22° C | 63% | 1008.1 hPa | 0 mm | 0.89 m/s, 181° | - | - |
| 1778105264 | 22.22° C | 63% | 1008.2 hPa | 0 mm | 0 m/s | - | - |
| 1778104966 | 22.22° C | 63% | 1008.1 hPa | 0 mm | 0 m/s | - | - |
| 1778104667 | 22.22° C | 63% | 1008.1 hPa | 0 mm | 1.79 m/s, 236° | - | - |
| 1778104366 | 22.22° C | 63% | 1008.1 hPa | 0 mm | 0.45 m/s, 256° | - | - |
| 1778104067 | 22.22° C | 64% | 1007.9 hPa | 0 mm | 0.89 m/s, 103° | - | - |
| 1778103768 | 21.67° C | 64% | 1008.1 hPa | 0 mm | 0 m/s | - | - |
| 1778103467 | 21.67° C | 64% | 1007.9 hPa | 0 mm | 1.34 m/s, 138° | - | - |
| 1778103168 | 21.67° C | 64% | 1007.9 hPa | 0 mm | 0.89 m/s, 243° | - | - |
| 1778102869 | 21.67° C | 64% | 1008 hPa | 0 mm | 0.45 m/s, 143° | - | - |
| 1778102568 | 21.67° C | 64% | 1007.9 hPa | 0 mm | 0.89 m/s, 205° | - | - |
* Rain latest hour (hover to see other rain measurements)
** Current wind speed in m/s (hover to see current wind gust speed)